Location: Harwich
(41.7160°N, 69.9939°W)
Time: 13:42:40
(UTC+02:00)

Courier 1B Rocket - Pass Details

Date: 26 February 2024
Orbit: 920 x 1201 km, 28.2° (Epoch: 23 April)

Event Time Altitude Azimuth Distance (km) Brightness Sun altitude
Exits shadow 10:04:37 23° 184° (S) 1,833 6.3 -26.0°
Maximum altitude 10:04:50 23° 182° (S) 1,832 6.3 -25.9°
Drops below altitude 10° 10:09:37 10° 131° (SE) 2,619 7.7 -25.1°
Sets 10:12:46 0° 118° (ESE) 3,586 8.7 -24.5°
